Theta_e
320 319 319 318 317 317 318 318 318 318 317 317 318 318 318 319 319 320 320 321 321 321 321 322 324 326 321 317 320 339 360 357 343 338 341 334 331 335 331 330 326 324 327 328 328 330 328
319 319 318 318 317 317 317 318 318 318 318 317 317 317 317 318 318 319 319 320 320 321 321 323 325 325 321 311 329 334 331 338 336 337 342 343 340 339 334 327 324 327 325 325 327 329 331
319 319 319 318 318 318 318 318 318 317 316 316 316 317 317 317 318 318 319 319 319 320 321 323 325 323 316 314 331 330 334 334 338 341 341 345 341 333 332 327 332 328 323 324 324 325 324
317 318 318 318 318 317 317 317 317 316 316 316 316 316 317 317 317 317 318 317 318 320 323 326 326 318 312 328 333 334 336 337 341 344 342 342 342 334 330 332 329 323 321 313 322 326 326
317 317 318 317 317 317 317 317 317 316 316 316 316 317 316 316 317 317 317 316 318 322 325 328 317 312 311 328 321 334 338 336 339 342 341 344 338 329 330 322 319 319 312 314 319 326 325
317 317 317 317 317 316 316 316 316 315 315 316 316 315 315 315 316 316 316 317 322 321 322 323 320 309 316 318 320 326 335 339 336 336 335 334 330 324 322 317 307 312 312 316 315 321 324
317 316 316 317 316 315 315 315 315 315 315 315 315 315 315 316 316 315 314 317 311 310 310 309 309 314 321 324 325 325 332 334 334 328 318 327 319 316 320 321 322 321 316 316 319 324 320
315 316 316 315 315 315 315 315 314 314 315 315 314 314 314 315 315 314 311 312 318 316 309 314 314 314 319 321 318 323 330 325 325 317 322 320 315 323 326 323 322 319 315 316 322 325 321
315 314 315 314 314 314 314 313 314 314 314 315 314 314 314 313 313 311 311 310 318 318 308 314 316 313 313 316 316 319 325 324 318 316 318 313 320 326 323 320 318 316 311 315 317 321 319
314 314 314 314 313 313 313 313 313 313 314 313 313 313 313 312 312 314 314 314 315 316 302 307 308 314 314 315 313 324 327 322 317 313 315 313 319 322 320 318 318 306 318 317 317 314 307
314 313 313 313 313 313 313 313 313 313 313 313 313 313 312 311 307 311 320 320 319 315 293 314 311 318 314 310 312 315 321 320 314 314 312 310 313 314 317 319 319 314 319 313 312 305 310
314 313 313 313 313 313 312 312 312 312 313 313 313 312 311 316 311 314 316 316 317 302 297 310 313 310 307 308 310 314 315 319 319 314 314 312 318 315 315 322 321 321 315 312 309 304 300
313 313 313 312 312 312 312 312 312 312 313 313 312 311 310 315 315 319 318 313 301 297 313 308 307 309 306 304 306 309 308 310 306 299 302 310 311 315 317 313 316 316 305 297 298 296 298
313 312 312 312 312 312 312 312 312 313 313 312 311 310 311 314 318 319 315 307 298 307 307 314 311 311 306 306 306 307 306 306 309 307 303 301 301 310 315 312 310 308 305 299 294 296 302
312 312 312 312 312 312 313 312 313 313 312 311 309 318 317 320 318 318 310 301 302 308 314 312 312 307 305 308 307 306 304 304 308 308 301 300 303 314 315 316 314 309 304 309 301 303 299
312 312 312 313 313 313 313 313 313 313 312 310 308 316 317 324 321 314 306 301 307 312 314 312 308 310 304 305 303 302 303 308 308 310 312 306 300 309 313 312 312 310 312 301 301 295 293
312 312 312 313 313 313 312 313 313 312 310 309 312 314 321 323 316 308 302 305 310 315 315 311 310 309 311 310 307 304 305 309 311 310 309 307 303 304 308 304 304 305 302 304 301 299 293
313 313 313 313 313 313 314 313 312 311 309 313 315 311 322 319 305 305 302 308 307 311 314 313 313 311 311 313 310 310 309 310 314 312 306 307 301 297 303 310 312 308 304 303 297 296 298
312 312 312 312 313 313 313 313 312 310 309 306 311 315 324 319 303 303 306 307 309 310 311 311 312 314 314 310 307 312 314 317 313 310 307 312 300 293 298 303 307 304 306 302 302 299 296
312 312 312 312 313 313 314 314 313 312 310 307 312 313 316 318 315 308 305 305 306 312 310 312 312 314 312 310 311 310 312 317 314 313 327 315 302 300 297 300 307 304 308 309 303 296 298
312 312 312 312 313 314 314 314 313 312 311 309 317 312 317 310 309 309 308 307 305 306 312 313 311 312 310 306 309 309 313 315 317 319 312 307 300 302 306 309 310 307 308 310 305 304 300
312 312 313 313 312 313 314 314 314 312 310 313 313 309 313 311 315 314 306 306 306 307 309 309 312 313 310 306 309 307 310 310 311 316 312 312 302 305 304 310 310 309 310 312 310 310 310
311 312 312 313 312 313 314 314 313 311 310 313 320 317 313 309 310 309 310 311 310 310 311 313 312 313 311 313 315 314 314 313 312 311 313 310 307 306 300 308 308 304 309 311 313 314 312
312 312 312 313 314 314 314 314 313 311 310 309 316 316 311 307 310 310 314 315 314 313 312 315 316 314 317 320 317 315 314 313 314 313 317 311 307 306 303 307 298 308 316 317 314 315 315
311 312 312 313 313 314 314 315 314 313 311 309 313 314 310 305 310 310 310 311 315 316 314 315 316 317 318 315 308 305 305 306 309 312 311 314 310 304 302 303 306 310 314 313 310 309 320
311 311 312 312 312 313 314 315 315 313 311 311 312 320 311 307 309 310 307 310 310 311 312 315 321 317 316 311 307 299 299 303 303 306 309 309 309 308 305 300 298 308 317 319 318 304 321
311 311 311 312 312 312 313 314 315 314 312 310 311 318 314 306 310 308 305 305 310 312 310 314 315 318 316 308 303 301 301 307 301 301 302 305 304 301 302 300 304 312 320 323 304 309 325
311 311 311 312 312 312 313 313 314 314 314 311 310 316 315 309 308 311 313 309 308 308 308 313 313 315 314 308 305 303 302 304 304 309 308 303 301 302 303 300 298 315 318 313 316 323 327
311 311 311 312 312 312 312 314 314 314 313 313 310 315 320 314 310 315 315 316 314 312 307 313 312 313 316 313 313 312 309 309 307 301 310 303 307 305 306 305 312 317 315 319 319 317 325
Wind_Speed
17 16 16 16 16 16 16 16 16 16 16 16 16 16 17 17 17 15 15 15 14 13 12 10 9 9 3 3 9 10 12 9 10 6 13 17 12 7 7 8 5 5 10 6 6 9 9
17 16 16 17 16 16 15 15 16 16 16 17 17 17 16 17 17 17 16 16 15 14 12 10 9 8 3 5 7 12 10 8 10 14 14 12 17 13 10 7 4 11 4 8 5 8 11
17 17 17 16 17 17 17 16 16 17 18 18 18 18 17 17 19 18 17 16 16 15 14 11 8 5 5 13 11 10 11 6 8 11 14 15 9 7 8 7 2 9 7 7 8 5 4
18 17 17 17 17 17 17 18 17 16 17 19 19 18 18 18 18 20 20 19 17 15 12 10 5 4 8 7 9 11 10 10 11 14 16 14 11 6 2 7 6 5 5 5 6 11 4
18 18 18 18 18 18 18 18 18 17 18 18 19 18 20 19 18 18 19 21 18 13 7 7 3 3 10 2 7 12 12 10 14 16 16 13 7 4 4 3 4 2 4 5 8 7 4
17 18 18 18 19 19 19 19 18 18 18 18 18 20 20 20 20 18 24 14 5 12 4 8 8 5 7 9 6 10 11 12 11 11 9 10 8 5 1 4 5 6 5 4 5 3 8
18 18 18 19 19 19 19 20 20 20 18 19 21 21 21 20 19 17 13 2 2 1 5 12 10 8 11 12 8 9 9 9 10 8 8 10 5 6 12 12 13 12 9 12 5 4 4
18 19 19 19 19 20 20 20 21 20 20 20 22 22 22 20 19 17 4 4 10 7 9 19 20 17 21 12 7 10 9 8 7 8 11 8 8 10 13 10 12 20 6 3 6 5 6
19 19 19 20 19 20 20 22 21 22 21 21 23 23 24 23 24 4 6 11 10 16 5 16 14 10 17 12 8 10 11 9 9 10 12 10 14 7 6 11 13 12 6 5 7 12 6
19 20 20 20 20 21 22 22 22 23 21 22 23 23 23 28 3 5 6 10 16 12 5 9 9 12 12 9 8 14 15 10 7 12 15 11 14 9 12 9 10 2 1 8 9 11 6
20 20 20 20 21 21 21 22 23 23 23 24 24 24 23 12 9 5 7 13 6 3 5 6 11 7 10 13 5 12 12 9 12 12 7 14 12 13 10 13 4 7 6 3 8 6 6
20 20 21 21 21 22 22 22 23 24 24 23 22 23 23 2 5 13 15 15 3 1 8 4 10 12 15 13 14 17 9 8 8 11 15 17 16 12 12 6 2 6 6 9 7 5 1
20 21 21 22 23 23 24 23 24 24 24 24 25 19 12 8 7 8 11 5 1 5 8 9 9 10 11 11 14 14 14 13 8 3 7 13 18 16 16 8 5 6 5 5 5 5 4
20 21 21 21 22 23 24 25 24 24 25 26 28 27 9 9 9 9 5 1 6 10 13 7 12 13 11 9 13 11 14 11 9 9 8 7 13 14 16 11 11 8 6 6 4 3 6
19 19 22 22 22 22 22 24 25 26 27 27 31 3 4 8 14 4 1 5 7 6 8 16 4 11 7 10 12 14 13 9 13 14 12 5 16 20 18 17 11 9 7 12 5 5 2
19 20 21 20 20 21 23 24 25 27 29 25 5 4 7 6 13 4 2 7 10 9 18 20 8 5 9 13 11 10 12 15 15 11 15 10 9 15 17 4 4 9 7 3 5 2 4
19 19 21 20 20 22 23 23 25 27 32 24 3 4 3 15 8 2 6 7 10 16 18 13 10 11 14 8 8 13 15 15 17 14 10 11 8 12 7 7 6 6 5 5 4 5 5
18 18 19 20 20 22 22 23 23 24 31 7 5 4 11 12 3 4 7 6 10 23 23 22 4 8 13 11 10 7 8 11 10 12 8 10 5 3 12 15 9 9 10 8 6 9 6
19 19 21 22 21 22 22 23 22 19 15 7 4 5 4 6 4 8 9 17 20 21 21 20 8 7 10 9 7 7 11 12 3 6 5 3 4 3 11 11 9 7 9 6 4 2 7
18 19 21 22 22 23 23 24 23 21 15 3 4 4 2 3 7 10 10 12 14 19 20 20 15 5 8 8 8 7 10 8 4 5 4 9 2 6 7 8 3 4 8 9 4 3 5
19 19 20 21 22 23 24 24 25 27 26 5 4 3 4 2 6 12 12 11 17 17 14 15 6 4 8 7 9 9 12 15 6 6 4 4 6 5 9 11 15 9 11 8 2 8 3
20 20 20 21 22 23 23 24 26 30 30 3 4 5 7 8 11 13 13 12 16 19 11 10 6 10 6 7 7 10 8 6 5 7 7 8 5 5 7 10 14 15 11 8 5 6 12
19 20 20 20 23 23 23 24 26 25 24 5 5 5 3 8 9 9 7 10 12 13 12 13 11 4 8 5 7 8 10 10 9 5 4 2 5 7 8 9 11 9 8 6 4 2 2
18 19 20 20 20 22 22 22 25 24 15 4 4 6 4 6 9 12 18 25 7 4 6 10 9 8 7 6 5 8 10 10 9 9 8 5 5 4 5 10 7 8 11 8 7 7 9
18 19 20 20 21 21 21 22 21 20 16 4 4 4 4 6 10 13 17 17 16 8 7 8 9 3 6 7 6 7 7 8 9 9 9 9 6 5 5 8 11 8 5 6 6 7 2
17 18 19 20 21 21 21 21 21 20 21 6 5 3 3 5 1 16 14 14 7 11 10 9 19 4 4 3 3 4 5 7 6 9 8 10 8 7 8 11 5 7 17 5 6 4 8
16 17 18 19 20 21 21 21 21 21 19 7 6 7 3 5 6 12 7 7 7 8 6 4 12 3 5 2 3 5 9 8 9 10 7 4 3 7 5 5 2 13 14 12 5 4 10
15 16 17 18 19 20 21 20 21 21 19 10 8 8 4 4 13 6 11 9 9 6 4 10 9 8 6 2 3 5 4 7 4 6 5 3 2 2 3 5 4 10 8 8 7 11 9
15 16 16 17 18 20 21 20 19 19 18 14 4 8 8 5 9 17 20 19 17 12 5 4 4 5 4 5 5 5 4 4 4 3 7 4 1 2 4 6 3 6 7 12 6 7 6
Wind_Direction
30 28 26 24 22 20 15 12 8 7 3 0 357 351 345 342 337 335 329 322 318 317 316 314 311 316 280 225 252 132 133 139 150 187 179 200 195 228 261 288 305 259 161 150 146 144 123
30 27 26 21 19 18 15 11 5 2 359 358 353 350 344 339 336 332 327 320 316 313 312 312 308 316 227 254 115 143 155 156 197 189 209 175 200 215 246 281 321 351 148 137 199 62 152
25 24 22 20 16 12 9 9 6 2 357 355 352 347 342 341 335 330 324 318 312 308 308 304 297 287 263 250 141 156 170 190 217 208 241 251 276 315 334 313 298 42 356 1 124 143 172
22 20 18 17 14 11 7 5 3 2 356 351 349 344 340 338 336 328 322 314 306 299 297 291 273 273 253 290 157 164 193 199 218 244 254 276 289 313 330 296 329 77 54 33 296 14 145
19 15 14 13 12 9 5 2 359 357 354 349 346 341 339 335 333 327 317 309 296 289 265 276 227 222 268 239 198 184 192 219 215 232 245 258 265 266 355 26 341 256 180 192 275 272 305
17 13 10 9 8 5 2 358 355 354 350 345 341 340 337 333 329 329 318 284 291 315 224 217 257 319 258 226 202 222 196 219 253 255 259 239 238 244 51 93 238 226 186 119 217 308 128
11 11 9 6 3 1 359 356 353 349 346 343 341 338 335 329 326 335 342 342 324 278 255 205 198 231 293 225 207 202 189 219 252 285 278 277 279 195 218 208 243 258 207 186 205 359 96
10 7 6 4 1 357 355 355 351 346 342 340 340 336 333 327 320 321 287 248 258 326 274 221 248 243 262 280 173 202 191 204 235 251 266 277 252 256 210 248 273 294 80 182 168 185 162
7 6 4 1 358 356 353 351 348 345 340 337 337 335 332 325 316 282 226 238 292 312 297 278 234 223 243 243 204 213 180 206 239 256 256 254 262 181 239 271 276 293 144 209 179 190 346
4 2 1 359 356 354 352 349 345 342 338 336 334 333 333 329 307 330 235 237 238 249 297 261 195 226 241 237 228 240 191 185 222 246 271 270 286 219 223 258 277 39 277 285 217 172 187
1 360 358 356 355 353 350 347 343 340 337 334 331 330 328 321 309 267 304 323 219 200 289 161 166 192 191 214 212 232 250 204 219 255 252 261 269 288 241 258 219 246 286 303 311 307 106
1 358 356 354 353 351 350 346 342 338 334 328 321 324 330 88 196 248 296 301 321 280 247 172 153 203 179 213 233 250 224 219 197 233 269 276 286 292 280 279 311 306 294 306 278 242 309
360 358 356 353 351 350 348 346 342 336 326 322 315 310 304 303 232 339 318 265 246 228 296 157 162 168 180 197 220 229 251 214 202 214 269 277 271 273 273 272 271 253 293 310 344 17 268
358 357 354 353 352 350 346 344 339 331 328 323 316 305 236 216 243 296 301 333 243 253 249 290 165 173 180 209 204 218 254 213 216 211 259 258 282 248 249 210 204 221 218 161 258 157 186
358 355 353 351 352 349 344 344 336 333 330 328 315 176 232 232 215 246 281 213 219 223 264 341 307 164 180 198 214 199 216 227 217 204 210 245 278 289 301 225 196 238 243 231 239 202 154
357 354 353 346 346 346 347 343 339 335 331 333 310 275 236 194 156 184 193 246 244 264 304 320 324 300 191 199 190 196 206 220 230 222 195 229 250 272 285 307 303 175 222 10 334 250 290
356 352 351 345 345 350 347 342 342 339 334 333 242 263 163 132 147 159 220 239 264 271 268 284 322 316 325 315 234 208 213 224 213 224 210 204 199 271 328 297 220 316 311 273 175 179 207
351 352 349 346 344 350 345 343 343 345 341 356 303 272 147 145 145 207 235 249 272 283 293 293 246 291 290 307 322 333 257 221 214 192 195 225 197 248 233 260 256 200 230 221 142 276 234
354 353 352 351 346 346 345 344 344 348 9 321 293 274 167 171 219 236 246 238 249 268 274 281 270 243 273 291 318 329 328 307 345 149 130 62 320 287 320 324 308 207 240 245 257 331 272
353 352 352 352 346 349 346 345 343 341 342 265 276 274 190 198 251 252 268 277 264 241 257 276 285 274 330 318 314 311 309 310 150 103 137 94 191 195 220 225 303 336 293 297 73 330 314
351 353 350 349 349 347 346 346 346 341 341 193 228 281 20 265 248 238 257 277 289 296 262 243 258 300 291 313 324 315 310 320 300 169 156 130 213 256 279 297 297 268 247 236 61 256 305
350 350 350 349 350 350 347 349 352 350 344 247 332 360 328 291 294 310 208 243 260 282 293 312 195 212 261 276 261 274 335 343 181 327 337 360 272 240 278 293 295 297 303 210 232 321 22
350 349 349 349 352 351 349 352 359 3 349 346 351 339 265 292 305 314 302 285 278 251 282 287 299 347 225 49 5 325 305 291 280 179 150 331 80 19 272 267 287 313 287 141 135 116 212
349 347 349 348 348 348 349 352 360 6 19 296 286 304 282 293 311 321 336 328 282 355 359 331 7 36 339 35 8 345 313 306 299 298 132 58 79 88 283 335 288 253 47 51 87 18 24
348 347 348 348 348 348 348 350 353 355 359 312 294 300 315 301 324 333 345 326 346 359 349 322 317 351 9 8 14 351 329 318 294 276 289 143 127 70 55 300 291 327 54 67 74 310 111
346 346 346 346 347 347 348 348 351 354 357 326 282 307 317 304 217 319 327 348 351 355 344 344 333 252 80 61 3 270 256 272 281 304 264 245 185 157 168 223 265 21 346 221 131 275 330
342 343 343 343 343 344 345 347 349 352 353 332 282 294 318 295 251 344 338 336 329 337 302 6 338 328 122 173 231 250 267 255 256 261 275 299 294 208 211 218 93 355 346 322 56 264 310
339 339 339 338 338 340 341 343 346 350 353 352 279 290 317 283 286 279 345 335 336 345 357 326 330 1 345 352 206 243 266 272 295 294 169 97 56 42 68 54 166 338 15 61 266 309 38
335 335 335 335 334 336 337 337 339 344 351 344 285 335 336 255 270 297 283 267 259 275 308 319 282 335 323 8 13 335 337 341 352 338 338 62 117 254 150 195 213 271 68 333 357 308 39